Date Time,Air Temp,Sky Temp,Clarity,Light Level,Rain Sensor,Readings
2021-07-12 00:00:05,19.6,8.0,11.6,0.0,-32.8,112
2021-07-12 00:05:05,19.7,8.0,11.7,0.0,-27.3,112
2021-07-12 00:10:05,19.9,9.1,10.9,0.0,-24.9,112
2021-07-12 00:15:05,20.1,9.6,10.5,0.0,-26.9,111
2021-07-12 00:20:05,20.2,11.7,8.5,0.0,-29.6,111
2021-07-12 00:25:05,20.2,10.6,9.6,0.0,-43.1,112
2021-07-12 00:30:05,20.2,10.2,9.9,0.0,-39.3,112
2021-07-12 00:35:05,20.1,10.0,10.1,0.0,-36.8,111
2021-07-12 00:40:05,20.1,11.1,9.0,0.0,-33.2,111
2021-07-12 00:45:05,20.2,10.8,9.4,0.0,-35.5,112
2021-07-12 00:50:05,20.2,10.0,10.2,0.0,-43.9,111
2021-07-12 00:55:05,20.1,10.6,9.5,0.0,-52.1,112
2021-07-12 01:00:05,20.1,9.7,10.3,0.0,-53.7,111
2021-07-12 01:05:05,20.3,8.9,11.4,0.0,-54.6,112
2021-07-12 01:10:05,19.9,9.2,10.8,0.0,-55.4,111
2021-07-12 01:15:05,19.9,9.3,10.7,0.0,-55.8,112
2021-07-12 01:20:05,20.0,9.3,10.6,0.0,-56.2,111
2021-07-12 01:25:05,20.0,9.4,10.6,0.0,-56.6,111
2021-07-12 01:30:05,20.1,9.4,10.7,0.0,-56.9,112
2021-07-12 01:35:05,19.9,9.2,10.7,0.0,-57.2,111
2021-07-12 01:40:05,20.2,9.4,10.8,0.0,-57.3,112
2021-07-12 01:45:05,19.9,9.5,10.4,0.0,-57.4,111
2021-07-12 01:50:05,20.3,9.4,10.9,0.0,-57.5,112
2021-07-12 01:55:05,20.4,9.7,10.7,0.0,-57.6,112
2021-07-12 02:00:05,20.5,9.9,10.5,0.0,-57.7,111
2021-07-12 02:05:05,20.5,9.6,10.8,0.0,-56.6,112
2021-07-12 02:10:05,20.5,9.5,11.0,0.0,-56.7,111
2021-07-12 02:15:05,20.4,9.5,10.9,0.0,-56.1,112
2021-07-12 02:20:05,20.3,9.7,10.6,0.0,-52.6,111
2021-07-12 02:25:05,20.2,9.5,10.7,0.0,-43.4,112
2021-07-12 02:30:05,20.1,9.1,11.0,0.0,-61.9,111
2021-07-12 02:35:05,20.0,8.8,11.2,0.0,-57.4,111
2021-07-12 02:40:05,19.9,8.8,11.1,0.0,-43.5,112
2021-07-12 02:45:05,19.8,8.4,11.5,0.0,-57.2,111
2021-07-12 02:50:05,19.7,7.4,12.3,0.0,-62.4,112
2021-07-12 02:55:05,20.0,7.6,12.4,0.0,-62.9,111
2021-07-12 03:00:05,19.8,8.1,11.7,0.0,-63.7,112
2021-07-12 03:05:05,19.9,9.5,10.4,0.0,-64.8,111
2021-07-12 03:10:05,20.1,10.0,10.1,0.0,-66.1,111
2021-07-12 03:15:05,20.1,10.1,10.0,0.0,-66.9,113
2021-07-12 03:20:05,20.2,10.2,10.0,0.0,-67.6,111
2021-07-12 03:25:05,20.3,10.2,10.1,0.0,-68.5,112
2021-07-12 03:30:05,20.3,10.1,10.2,0.0,-69.6,111
2021-07-12 03:35:05,20.3,10.1,10.2,0.0,-70.5,112
2021-07-12 03:40:05,20.4,10.2,10.2,0.0,-71.0,112
2021-07-12 03:45:05,20.4,10.1,10.3,0.0,-71.9,112
2021-07-12 03:50:05,20.4,10.1,10.3,0.0,-72.5,111
2021-07-12 03:55:05,20.4,10.1,10.3,0.0,-72.7,112
2021-07-12 04:00:05,20.4,10.0,10.5,0.0,-72.8,112
2021-07-12 04:05:05,20.4,10.1,10.3,0.1,-72.1,111
2021-07-12 04:10:05,20.4,10.2,10.2,0.2,-73.1,112
2021-07-12 04:15:05,20.3,10.2,10.1,0.5,-72.8,112
2021-07-12 04:20:05,20.3,10.1,10.2,0.8,-73.2,111
2021-07-12 04:25:05,20.3,10.1,10.2,1.2,-73.3,113
2021-07-12 04:30:05,20.3,10.3,10.0,2.1,-73.4,111
2021-07-12 04:35:05,20.3,10.2,10.1,4.0,-73.4,112
2021-07-12 04:40:05,20.3,10.4,10.0,7.1,-73.4,112
2021-07-12 04:45:05,20.5,10.8,9.6,10.8,-73.2,111
2021-07-12 04:50:05,20.5,10.6,9.9,12.7,-73.0,112
2021-07-12 04:55:05,20.5,10.3,10.1,16.2,-58.6,111
2021-07-12 05:00:05,20.3,10.5,9.8,18.5,-50.1,111
2021-07-12 05:05:05,20.2,10.3,9.9,19.7,-46.4,112
2021-07-12 05:10:05,20.1,9.7,10.4,21.5,-43.1,111
2021-07-12 05:15:05,20.1,11.1,9.0,25.0,-26.6,112
2021-07-12 05:20:05,20.2,11.7,8.5,27.0,-26.0,112
2021-07-12 05:25:05,20.2,11.5,8.7,28.5,-36.3,111
2021-07-12 05:30:05,20.0,10.9,9.2,29.6,-45.2,111
2021-07-12 05:35:05,19.9,11.2,8.7,30.1,-58.5,111
2021-07-12 05:40:05,19.8,10.5,9.3,30.4,-64.7,111
2021-07-12 05:45:05,19.8,9.3,10.6,30.3,-59.3,112
2021-07-12 05:50:05,19.8,10.9,8.9,30.2,-44.9,111
2021-07-12 05:55:05,20.0,11.2,8.8,30.1,-61.9,112
2021-07-12 06:00:05,20.3,9.4,10.9,30.5,-37.8,111
2021-07-12 06:05:07,20.2,13.2,7.0,30.4,-36.7,43
2021-07-12 06:10:07,20.2,12.9,7.2,30.7,-49.1,111
2021-07-12 06:15:07,20.1,13.0,7.2,30.9,-47.7,111
2021-07-12 06:20:07,20.0,13.2,6.9,31.4,-63.0,112
2021-07-12 06:25:07,20.0,13.0,6.9,31.6,-60.1,111
2021-07-12 06:30:07,19.9,10.6,9.3,31.8,-73.8,111
2021-07-12 06:35:07,19.8,9.7,10.1,31.8,-74.1,112
2021-07-12 06:40:07,19.9,10.2,9.6,32.0,-74.7,111
2021-07-12 06:45:07,20.1,10.2,9.8,32.1,-77.6,112
2021-07-12 06:50:07,20.2,10.3,9.9,32.1,-79.5,112
2021-07-12 06:55:07,20.4,9.9,10.5,32.2,-80.5,111
2021-07-12 07:00:07,20.6,10.3,10.3,32.2,-80.7,113
2021-07-12 07:05:07,20.7,10.0,10.7,32.2,-80.8,111
2021-07-12 07:10:07,20.8,10.1,10.7,32.3,-81.0,112
2021-07-12 07:15:07,20.9,10.5,10.5,32.3,-81.2,112
2021-07-12 07:20:07,20.9,9.7,11.2,32.3,-81.2,112
2021-07-12 07:25:07,21.0,8.5,12.4,32.3,-81.0,111
2021-07-12 07:30:07,21.0,8.4,12.6,32.4,-80.7,112
2021-07-12 07:35:07,21.1,9.3,11.8,32.4,-80.1,111
2021-07-12 07:40:07,21.3,9.9,11.3,32.4,-79.8,112
2021-07-12 07:45:07,21.5,10.0,11.4,32.4,-79.5,112
2021-07-12 07:50:07,21.7,9.3,12.4,32.4,-79.1,111
2021-07-12 07:55:07,21.9,9.2,12.7,32.4,-79.0,112
2021-07-12 08:00:07,21.9,9.4,12.6,32.3,-78.8,111
2021-07-12 08:05:07,21.9,9.1,12.8,32.4,-78.7,112
2021-07-12 08:10:07,21.8,8.6,13.2,32.4,-78.3,111
2021-07-12 08:15:07,21.9,9.7,12.2,32.4,-78.1,112
2021-07-12 08:20:07,22.0,9.7,12.3,32.4,-77.8,111
2021-07-12 08:25:07,22.1,9.4,12.7,32.4,-77.6,112
2021-07-12 08:30:07,22.1,7.4,14.6,32.4,-77.2,111
2021-07-12 08:35:07,22.1,6.1,16.0,32.4,-77.0,112
2021-07-12 08:40:07,22.2,8.3,13.9,32.4,-76.6,111
2021-07-12 08:45:07,22.3,10.4,11.9,32.4,-76.2,112
2021-07-12 08:50:07,22.3,10.9,11.4,32.4,-76.1,111
2021-07-12 08:55:07,22.2,11.0,11.2,32.4,-76.0,111
2021-07-12 09:00:07,22.2,11.0,11.2,32.4,-76.0,111
2021-07-12 09:05:07,21.9,10.5,11.4,32.5,-75.6,112
2021-07-12 09:10:07,22.5,11.1,11.4,32.5,-75.2,111
2021-07-12 09:15:07,22.7,11.4,11.3,32.5,-75.3,112
2021-07-12 09:20:07,22.8,11.5,11.3,32.5,-75.4,111
2021-07-12 09:25:07,22.8,11.5,11.3,32.5,-75.4,111
2021-07-12 09:30:07,22.9,11.6,11.2,32.4,-75.3,111
2021-07-12 09:35:08,22.8,11.4,11.5,32.4,-75.4,111
2021-07-12 09:40:08,22.7,11.4,11.3,32.4,-75.3,111
2021-07-12 09:45:08,22.7,12.1,10.6,32.4,-75.2,112
2021-07-12 09:50:08,22.8,12.0,10.8,32.4,-75.5,112
2021-07-12 09:55:08,23.0,12.3,10.7,32.5,-75.3,111
2021-07-12 10:00:08,23.4,12.6,10.8,32.5,-74.9,111
2021-07-12 10:05:08,23.9,13.0,11.0,32.5,-74.9,111
2021-07-12 10:10:08,25.0,13.1,11.9,32.6,-73.9,112
2021-07-12 10:15:08,25.9,13.8,12.1,32.6,-73.6,111
2021-07-12 10:20:08,26.4,12.5,13.8,32.6,-73.9,111
2021-07-12 10:25:08,26.6,11.4,15.2,32.5,-73.6,111
2021-07-12 10:30:08,26.5,13.7,12.8,32.5,-73.5,112
2021-07-12 10:35:08,26.2,14.0,12.2,32.5,-73.2,111
2021-07-12 10:40:08,26.4,15.1,11.3,32.6,-72.4,112
2021-07-12 10:45:08,26.8,15.0,11.9,32.5,-72.9,111
2021-07-12 10:50:08,26.4,14.2,12.2,32.5,-73.0,112
2021-07-12 10:55:08,25.7,14.6,11.1,32.5,-72.6,112
2021-07-12 11:00:08,25.4,14.9,10.5,32.5,-72.5,111
2021-07-12 11:05:08,25.4,14.7,10.7,32.5,-72.5,111
2021-07-12 11:10:08,25.4,14.7,10.7,32.5,-72.5,112
2021-07-12 11:15:08,25.3,14.1,11.2,32.5,-72.5,111
2021-07-12 11:20:08,25.6,13.7,11.9,32.5,-72.2,112
2021-07-12 11:25:08,25.8,13.7,12.1,32.5,-72.2,111
2021-07-12 11:30:08,26.0,11.9,14.1,32.5,-72.1,111
2021-07-12 11:35:08,26.0,13.1,13.0,32.6,-71.7,112
2021-07-12 11:40:08,26.3,13.4,12.9,32.6,-71.6,111
2021-07-12 11:45:08,26.8,14.9,11.9,32.6,-71.1,112
2021-07-12 11:50:08,27.3,13.4,14.0,32.6,-71.6,111
2021-07-12 11:55:08,27.4,13.8,13.5,32.6,-71.7,112
2021-07-12 12:00:08,27.1,14.4,12.7,32.5,-71.7,111
2021-07-12 12:05:08,27.6,15.4,12.2,32.5,-71.5,112
2021-07-12 12:10:08,27.5,15.6,12.0,32.5,-71.5,111
2021-07-12 12:15:08,27.5,16.0,11.5,32.5,-71.6,111
2021-07-12 12:20:08,27.6,15.3,12.3,32.5,-71.5,112
2021-07-12 12:25:08,27.7,15.8,11.9,32.5,-71.3,111
2021-07-12 12:30:08,27.6,15.6,12.0,32.5,-71.3,111
2021-07-12 12:35:08,27.3,15.5,11.7,32.5,-71.6,112
2021-07-12 12:40:08,26.9,15.3,11.6,32.5,-72.0,111
2021-07-12 12:45:08,26.6,15.5,11.2,32.5,-72.4,111
2021-07-12 12:50:08,26.5,15.3,11.2,32.5,-72.6,112
2021-07-12 12:55:08,26.4,15.2,11.2,32.5,-72.8,112
2021-07-12 13:00:08,26.3,14.3,12.0,32.5,-72.9,112
2021-07-12 13:05:08,26.4,14.2,12.2,32.5,-72.9,111
2021-07-12 13:10:08,26.7,14.1,12.6,32.5,-72.6,111
2021-07-12 13:15:08,26.8,15.0,11.9,32.5,-72.3,112
2021-07-12 13:20:08,27.0,16.3,10.7,32.5,-72.1,111
2021-07-12 13:25:08,26.8,19.6,7.2,32.5,-72.3,112
2021-07-12 13:30:08,26.6,16.5,10.0,32.5,-72.6,111
2021-07-12 13:35:08,26.4,14.1,12.3,32.5,-72.9,111
2021-07-12 13:40:08,26.2,13.9,12.3,32.5,-73.2,111
2021-07-12 13:45:08,26.1,13.9,12.1,32.4,-73.3,112
2021-07-12 13:50:08,26.0,13.8,12.2,32.4,-73.5,111
2021-07-12 13:55:08,25.9,13.5,12.3,32.4,-73.9,111
2021-07-12 14:00:08,25.8,13.8,11.9,32.4,-73.9,112
2021-07-12 14:05:08,25.8,14.1,11.7,32.5,-74.1,111
2021-07-12 14:10:08,25.8,14.4,11.4,32.5,-74.0,111
2021-07-12 14:15:08,25.9,14.4,11.5,32.5,-71.6,112
2021-07-12 14:20:08,26.1,14.0,12.1,32.5,-73.7,111
2021-07-12 14:25:08,26.2,13.5,12.7,32.5,-76.7,112
2021-07-12 14:30:08,26.4,14.2,12.2,32.5,-77.3,111
2021-07-12 14:35:08,26.1,14.0,12.0,32.5,-77.4,111
2021-07-12 14:40:08,26.6,13.9,12.7,32.5,-77.3,112
2021-07-12 14:45:08,27.0,14.8,12.2,32.5,-77.1,111
2021-07-12 14:50:08,27.3,14.2,13.0,32.5,-76.9,111
2021-07-12 14:55:08,27.3,14.0,13.3,32.5,-77.4,112
2021-07-12 15:00:08,27.3,13.5,13.8,32.5,-77.0,111
2021-07-12 15:05:08,27.1,12.4,14.7,32.5,-76.9,111
2021-07-12 15:10:08,26.3,13.0,13.3,32.5,-77.4,112
2021-07-12 15:15:08,25.7,13.2,12.6,32.5,-78.0,111
2021-07-12 15:20:08,25.5,13.2,12.3,32.5,-78.6,111
2021-07-12 15:25:08,25.3,13.5,11.8,32.4,-78.9,112
2021-07-12 15:30:08,25.2,13.5,11.7,32.4,-79.4,111
2021-07-12 15:35:08,25.1,13.2,11.9,32.4,-79.7,111
2021-07-12 15:40:08,25.1,12.8,12.3,32.4,-80.1,112
2021-07-12 15:45:08,25.1,12.6,12.5,32.4,-81.0,111
2021-07-12 15:50:08,25.2,12.2,13.0,32.4,-82.6,111
2021-07-12 15:55:08,25.3,12.3,13.0,32.4,-83.5,112
2021-07-12 16:00:08,25.3,12.9,12.4,32.4,-84.2,111
2021-07-12 16:05:08,25.3,13.8,11.6,32.4,-84.1,111
2021-07-12 16:10:08,25.3,14.0,11.4,32.4,-83.9,112
2021-07-12 16:15:08,25.3,13.8,11.4,32.4,-84.5,111
2021-07-12 16:20:08,25.3,14.5,10.8,32.3,-84.6,112
2021-07-12 16:25:08,25.4,14.2,11.2,32.3,-84.5,111
2021-07-12 16:30:08,25.3,13.6,11.7,32.3,-84.0,112
2021-07-12 16:35:08,25.1,13.1,12.1,32.3,-88.5,111
2021-07-12 16:40:08,24.8,13.1,11.7,32.3,-88.8,111
2021-07-12 16:45:08,24.4,12.7,11.7,32.3,-89.3,111
2021-07-12 16:50:08,24.1,13.2,11.0,32.3,-96.8,112
2021-07-12 16:55:08,23.9,12.4,11.5,32.4,-98.5,111
2021-07-12 17:00:08,23.7,12.9,10.9,32.3,-109.0,112
2021-07-12 17:05:08,23.6,13.2,10.4,32.3,-77.0,111
2021-07-12 17:10:08,23.4,12.1,11.3,32.4,-78.0,112
2021-07-12 17:15:08,23.3,10.9,12.4,32.4,-82.0,111
2021-07-12 17:20:08,23.0,11.0,12.0,32.4,-95.2,112
2021-07-12 17:25:08,22.7,10.9,11.8,32.4,-86.4,111
2021-07-12 17:30:08,22.6,12.2,10.4,32.3,-79.6,111
2021-07-12 17:35:08,22.6,14.6,8.0,32.2,-46.7,112
2021-07-12 17:40:08,22.6,15.5,7.1,32.2,-48.2,111
2021-07-12 17:45:08,22.2,13.5,8.6,32.1,-40.8,111
2021-07-12 17:50:08,22.5,12.5,10.0,32.2,-20.8,111
2021-07-12 17:55:08,22.5,12.6,9.9,32.2,-25.8,112
2021-07-12 18:00:08,22.4,14.2,8.3,32.2,-30.8,111
2021-07-12 18:05:08,22.6,14.2,8.4,32.2,-12.0,111
2021-07-12 18:10:08,22.7,14.6,8.1,32.2,-10.6,112
2021-07-12 18:15:08,22.7,15.7,7.0,32.1,-17.7,111
2021-07-12 18:20:08,22.5,16.6,6.0,32.1,-13.9,111
2021-07-12 18:25:08,22.6,17.4,5.2,32.1,-13.3,112
2021-07-12 18:30:08,22.6,16.7,5.8,32.0,-15.8,112
2021-07-12 18:35:08,22.5,15.4,7.1,32.0,-52.3,111
2021-07-12 18:40:08,22.2,11.6,10.6,32.1,-61.3,112
2021-07-12 18:45:08,22.1,11.9,10.2,32.1,-65.1,111
2021-07-12 18:50:08,22.2,11.8,10.4,32.2,-68.3,111
2021-07-12 18:55:08,22.3,11.8,10.6,32.2,-68.3,111
2021-07-12 19:00:08,22.4,11.8,10.6,32.2,-66.0,112
2021-07-12 19:05:08,22.5,11.2,11.3,32.1,-70.7,111
2021-07-12 19:10:08,22.4,12.3,10.2,32.1,-74.6,112
2021-07-12 19:15:08,22.5,12.7,9.8,32.1,-77.0,111
2021-07-12 19:20:08,22.5,13.6,8.9,31.9,-78.7,112
2021-07-12 19:25:08,22.7,13.8,8.9,31.6,-80.1,111
2021-07-12 19:30:08,22.8,13.1,9.7,31.3,-81.1,111
2021-07-12 19:35:08,22.6,12.5,10.1,31.4,-81.3,112
2021-07-12 19:40:08,22.5,12.3,10.2,31.4,-81.7,111
2021-07-12 19:45:08,22.6,13.7,8.9,30.3,-84.2,112
2021-07-12 19:50:08,22.6,13.3,9.3,27.9,-81.0,111
2021-07-12 19:55:08,22.4,11.6,10.8,29.0,-63.3,111
2021-07-12 20:00:08,22.3,12.5,9.8,29.0,12.5,112
2021-07-12 20:05:08,22.3,12.5,9.8,29.3,6.1,111
2021-07-12 20:10:08,22.2,12.2,9.9,29.5,8.8,112
2021-07-12 20:15:08,22.1,11.7,10.4,29.1,12.2,111
2021-07-12 20:20:08,22.1,11.7,10.4,28.6,14.8,111
2021-07-12 20:25:08,22.0,12.7,9.3,28.1,4.2,112
2021-07-12 20:30:08,21.9,12.2,9.7,27.8,-1.9,111
2021-07-12 20:35:08,21.8,10.7,11.0,27.8,2.5,112
2021-07-12 20:40:08,21.7,11.0,10.7,27.9,-7.0,112
2021-07-12 20:45:08,21.6,13.2,8.4,27.8,-4.1,111
2021-07-12 20:50:08,21.6,13.2,8.4,27.9,-9.4,112
2021-07-12 20:55:08,21.5,11.3,10.2,28.0,-13.8,111
2021-07-12 21:00:08,21.4,11.5,10.0,28.0,-9.5,112
2021-07-12 21:05:08,21.4,11.2,10.3,27.5,-16.6,111
2021-07-12 21:10:08,21.4,12.1,9.3,26.3,-16.8,111
2021-07-12 21:15:08,21.3,13.6,7.7,24.2,-20.5,111
2021-07-12 21:20:08,21.4,13.8,7.6,21.3,-50.7,112
2021-07-12 21:25:08,21.4,11.9,9.4,17.9,-75.3,111
2021-07-12 21:30:08,21.3,9.6,11.7,14.6,-89.0,112
2021-07-12 21:35:08,21.2,9.1,12.1,11.6,-93.9,111
2021-07-12 21:40:08,21.1,10.0,11.1,9.3,-87.1,111
2021-07-12 21:45:08,21.2,9.6,11.5,7.4,-94.3,112
2021-07-12 21:50:08,21.0,8.3,12.7,5.3,-106.6,111
2021-07-12 21:55:08,20.9,8.4,12.5,3.8,-116.4,112
2021-07-12 22:00:08,20.8,8.4,12.4,2.7,-122.5,112
2021-07-12 22:05:08,20.8,8.9,11.9,1.8,-131.4,111
2021-07-12 22:10:08,20.9,8.8,12.1,1.2,-135.3,111
2021-07-12 22:15:08,20.9,8.9,12.0,0.7,-136.5,112
2021-07-12 22:20:08,21.0,9.0,12.0,0.5,-137.4,111
2021-07-12 22:25:08,21.1,9.4,11.7,0.3,-138.6,111
2021-07-12 22:30:08,21.3,10.7,10.6,0.2,-137.6,111
2021-07-12 22:35:08,21.4,11.3,10.1,0.1,-138.7,112
2021-07-12 22:40:08,21.5,10.0,11.5,0.1,-139.3,111
2021-07-12 22:45:08,21.5,9.3,12.2,0.1,-145.0,111
2021-07-12 22:50:08,21.6,10.0,11.6,0.1,-147.3,112
2021-07-12 22:55:08,21.7,10.4,11.3,0.1,-148.8,111
2021-07-12 23:00:08,21.6,10.5,11.1,0.0,-148.5,112
2021-07-12 23:05:08,21.6,10.5,11.1,0.0,-150.2,112
2021-07-12 23:10:08,21.5,10.5,11.0,0.0,-151.5,111
2021-07-12 23:15:08,21.6,10.0,11.6,0.0,-152.7,112
2021-07-12 23:20:08,21.6,9.5,12.2,0.0,-155.9,111
2021-07-12 23:25:08,21.6,9.5,12.2,0.0,-157.7,112
2021-07-12 23:30:08,21.7,9.4,12.3,0.0,-160.4,112
2021-07-12 23:35:08,21.7,9.8,12.0,0.0,-164.3,112
2021-07-12 23:40:08,21.8,9.7,12.1,0.0,-165.1,111
2021-07-12 23:45:08,21.8,9.4,12.3,0.0,-165.6,111
2021-07-12 23:50:08,21.8,9.2,12.5,0.0,-166.2,111
2021-07-12 23:55:08,21.8,9.3,12.5,0.0,-166.5,112
